Weather History for KGCC - April, 2013

Change the Weather History Date:

Monday, April 22, 2013

  Actual Average Record
Temperature  
Mean Temperature 18 °F 45 °F  
Max Temperature 26 °F 58 °F 82 °F (1989)
Min Temperature 9 °F 32 °F 9 °F (2013)
Degree Days  
Heating Degree Days 47 20  
Month to date heating degree days 698 519  
Since 1 July heating degree days 6785 6866  
Cooling Degree Days 0 0  
Month to date cooling degree days 0 0  
Year to date cooling degree days 0 0  
Moisture  
Dew Point 21 °F    
Average Humidity 82    
Maximum Humidity 100    
Minimum Humidity 63    
Precipitation  
Precipitation 0.14 in 0.05 in 0.62 in (1978)
Month to date precipitation 1.51 0.90  
Year to date precipitation 2.92 2.64  
Sea Level Pressure  
Sea Level Pressure 30.25 in    
Wind  
Wind Speed 12 mph (North)    
Max Wind Speed 22 mph    
Max Gust Speed 25 mph    
Visibility 4 miles    
Events Fog , Snow    
T = Trace of Precipitation, MM = Missing Value Source: NWS Daily Summary

Daily Weather History Graph

Daily Weather History Graph

Search for Another Location

Airport or City:

Trip Planner

Search our weather history database for the weather conditions in past years. The results will help you decide how hot, cold, wet, or windy it might be!

Date:

Astronomy

Apr. 22, 2013 Rise Set
Actual Time 6:06 AM MDT 7:55 PM MDT
Civil Twilight 5:35 AM MDT 8:26 PM MDT
Nautical Twilight 4:57 AM MDT 9:04 PM MDT
Astronomical Twilight 4:16 AM MDT 9:45 PM MDT
Moon 4:41 PM MDT (4/22) 4:10 AM MDT (4/22)
Length of Visible Light 14h 51m
Length of Day
13h 49m
Waxing Gibbous, 88% of the Moon is Illuminated
Apr 22
Waxing Gibbous
Apr 25
Full
May 2
Last Quarter
May 9
New
May 17
First Quarter

Hourly Weather History & Observations

Time (MDT) Temp. Windchill Dew Point Humidity Pressure Visibility Wind Dir Wind Speed Gust Speed Precip Events Conditions
12:53 AM 26.1 °F 14.0 °F 26.1 °F 100% 30.17 in 0.2 mi NNE 15.0 mph - 0.05 in Fog , Snow Heavy Snow
1:23 AM 26.6 °F 14.7 °F 24.8 °F 93% 30.09 in 0.8 mi North 15.0 mph - 0.06 in Snow Light Snow
1:35 AM 26.6 °F 14.3 °F 24.8 °F 93% 30.09 in 0.8 mi North 16.1 mph - 0.07 in Snow Light Snow
1:42 AM 26.6 °F 14.3 °F 24.8 °F 93% 30.09 in 0.5 mi North 16.1 mph - 0.08 in Fog , Snow Snow
1:53 AM 25.0 °F 12.6 °F 25.0 °F 100% 30.17 in 0.5 mi North 15.0 mph - 0.09 in Fog , Snow Snow
2:04 AM 24.8 °F 11.9 °F 24.8 °F 100% 30.09 in 0.8 mi North 16.1 mph - 0.01 in Snow Light Snow
2:23 AM 24.8 °F 11.9 °F 24.8 °F 100% 30.08 in 1.0 mi North 16.1 mph - 0.02 in Snow Light Snow
2:51 AM 24.8 °F 12.9 °F 24.8 °F 100% 30.09 in 1.2 mi North 13.8 mph - 0.03 in Snow Light Snow
2:53 AM 25.0 °F 12.6 °F 24.1 °F 96% 30.18 in 1.2 mi North 15.0 mph - 0.03 in Snow Light Snow
3:20 AM 24.8 °F 11.9 °F 24.8 °F 100% 30.10 in 1.5 mi North 16.1 mph - 0.00 in Snow Light Snow
3:50 AM 24.8 °F 12.4 °F 24.8 °F 100% 30.11 in 2.0 mi North 15.0 mph - 0.00 in Snow Light Snow
3:53 AM 25.0 °F 12.6 °F 24.1 °F 96% 30.21 in 2.0 mi North 15.0 mph - 0.01 in Snow Light Snow
4:01 AM 24.8 °F 12.4 °F 24.8 °F 100% 30.12 in 2.0 mi North 15.0 mph - 0.00 in Snow Light Snow
4:11 AM 24.8 °F 11.9 °F 24.8 °F 100% 30.12 in 2.5 mi North 16.1 mph - 0.00 in Snow Light Snow
4:19 AM 24.8 °F 11.9 °F 24.8 °F 100% 30.12 in 3.0 mi North 16.1 mph - 0.00 in Snow Light Snow
4:29 AM 24.8 °F 12.4 °F 24.8 °F 100% 30.13 in 2.0 mi North 15.0 mph - 0.00 in Snow Light Snow
4:38 AM 24.8 °F 12.4 °F 24.8 °F 100% 30.13 in 1.8 mi North 15.0 mph - 0.00 in Snow Light Snow
4:53 AM 25.0 °F 13.1 °F 24.1 °F 96% 30.24 in 2.0 mi North 13.8 mph - 0.00 in Snow Light Snow
5:03 AM 24.8 °F 12.4 °F 24.8 °F 100% 30.14 in 2.0 mi North 15.0 mph - 0.00 in Snow Light Snow
5:12 AM 24.8 °F 12.9 °F 24.8 °F 100% 30.14 in 2.0 mi North 13.8 mph - 0.00 in Snow Light Snow
5:19 AM 24.8 °F 12.9 °F 24.8 °F 100% 30.14 in 2.0 mi North 13.8 mph - 0.00 in Snow Light Snow
5:22 AM 24.8 °F 13.4 °F 24.8 °F 100% 30.15 in 1.8 mi North 12.7 mph - 0.00 in Snow Light Snow
5:40 AM 24.8 °F 14.6 °F 24.8 °F 100% 30.15 in 1.2 mi North 10.4 mph - 0.00 in Snow Light Snow
5:53 AM 24.1 °F 12.0 °F 24.1 °F 100% 30.26 in 1.8 mi North 13.8 mph - 0.01 in Snow Light Snow
6:00 AM 24.8 °F 12.4 °F 23.0 °F 93% 30.16 in 3.0 mi North 15.0 mph - 0.00 in Snow Light Snow
6:09 AM 24.8 °F 11.9 °F 23.0 °F 93% 30.16 in 2.5 mi NNE 16.1 mph - 0.00 in Snow Light Snow
6:15 AM 24.8 °F 12.4 °F 23.0 °F 93% 30.17 in 1.8 mi NNE 15.0 mph - 0.00 in Snow Light Snow
6:32 AM 24.8 °F 11.9 °F 21.2 °F 86% 30.17 in 0.8 mi NNE 16.1 mph - 0.00 in Snow Light Snow
6:53 AM 24.1 °F 12.0 °F 21.9 °F 91% 30.29 in 1.0 mi NNE 13.8 mph - 0.01 in Snow Light Snow
6:59 AM 24.8 °F 12.9 °F 23.0 °F 93% 30.19 in 1.0 mi North 13.8 mph - 0.00 in Snow Light Snow
7:21 AM 23.0 °F 9.2 °F 21.2 °F 93% 30.20 in 1.5 mi NNE 17.3 mph - 0.00 in Snow Light Snow
7:28 AM 23.0 °F 8.3 °F 21.2 °F 93% 30.21 in 1.2 mi NNE 19.6 mph - 0.00 in Snow Light Snow
7:36 AM 23.0 °F 9.6 °F 21.2 °F 93% 30.22 in 1.2 mi NNE 16.1 mph - 0.00 in Snow Light Snow
7:44 AM 23.0 °F 10.6 °F 21.2 °F 93% 30.22 in 1.5 mi NNE 13.8 mph - 0.00 in Snow Light Snow
7:53 AM 23.0 °F 10.6 °F 21.0 °F 92% 30.34 in 1.5 mi NNE 13.8 mph - 0.00 in Snow Light Snow
8:20 AM 23.0 °F 9.6 °F 21.2 °F 93% 30.23 in 1.0 mi North 16.1 mph - 0.00 in Snow Light Snow
8:28 AM 21.2 °F 6.4 °F 19.4 °F 93% 30.24 in 1.0 mi North 18.4 mph - 0.00 in Snow Light Snow
8:32 AM 21.2 °F 6.0 °F 19.4 °F 93% 30.24 in 0.8 mi North 19.6 mph - 0.00 in Snow Light Snow
8:42 AM 21.2 °F 6.4 °F 19.4 °F 93% 30.25 in 1.0 mi North 18.4 mph - 0.00 in Snow Light Snow
8:53 AM 21.9 °F 7.3 °F 19.9 °F 92% 30.38 in 1.8 mi North 18.4 mph - 0.00 in   Overcast
9:00 AM 21.2 °F 6.4 °F 19.4 °F 93% 30.26 in 3.0 mi North 18.4 mph - N/A   Overcast
9:09 AM 21.2 °F 6.0 °F 19.4 °F 93% 30.26 in 2.5 mi NNE 19.6 mph - 0.00 in Snow Light Snow
9:12 AM 21.2 °F 5.6 °F 19.4 °F 93% 30.26 in 1.8 mi NNE 20.7 mph - 0.00 in Snow Light Snow
9:31 AM 21.2 °F 7.3 °F 15.8 °F 80% 30.27 in 2.5 mi NNE 16.1 mph - 0.00 in Snow Light Snow
9:38 AM 21.2 °F 6.4 °F 15.8 °F 80% 30.27 in 7.0 mi NNE 18.4 mph - 0.00 in   Overcast
9:53 AM 21.9 °F 8.2 °F 17.1 °F 82% 30.40 in 10.0 mi North 16.1 mph - 0.00 in   Overcast
10:53 AM 23.0 °F 10.1 °F 18.0 °F 81% 30.42 in 10.0 mi North 15.0 mph - N/A   Overcast
11:53 AM 23.0 °F 10.6 °F 14.0 °F 68% 30.44 in 10.0 mi North 13.8 mph - N/A   Overcast
12:53 PM 25.0 °F 13.6 °F 15.1 °F 66% 30.43 in 10.0 mi NNW 12.7 mph - N/A   Overcast
1:53 PM 25.0 °F 14.2 °F 15.1 °F 66% 30.45 in 10.0 mi North 11.5 mph - N/A   Mostly Cloudy
2:22 PM 24.8 °F 13.4 °F 17.6 °F 74% 30.32 in 9.0 mi North 12.7 mph - 0.00 in Snow Light Snow
2:53 PM 25.0 °F 14.2 °F 18.0 °F 75% 30.45 in 10.0 mi NNE 11.5 mph - 0.00 in   Overcast
3:53 PM 26.1 °F 15.6 °F 16.0 °F 66% 30.44 in 10.0 mi NNW 11.5 mph - N/A   Overcast
4:53 PM 24.1 °F 12.0 °F 19.0 °F 81% 30.45 in 10.0 mi NNW 13.8 mph - N/A   Overcast
5:53 PM 24.1 °F 13.1 °F 18.0 °F 77% 30.45 in 10.0 mi NNW 11.5 mph - N/A   Mostly Cloudy
6:53 PM 21.9 °F 11.7 °F 17.1 °F 82% 30.47 in 10.0 mi NNW 9.2 mph - N/A   Scattered Clouds
7:53 PM 18.0 °F 9.8 °F 14.0 °F 84% 30.48 in 10.0 mi NW 5.8 mph - N/A   Mostly Cloudy
8:53 PM 10.9 °F 0.2 °F 10.0 °F 96% 30.51 in 10.0 mi West 6.9 mph - N/A   Partly Cloudy
9:53 PM 12.0 °F 4.1 °F 9.0 °F 88% 30.53 in 10.0 mi West 4.6 mph - N/A   Clear
10:53 PM 12.0 °F 0.5 °F 10.0 °F 92% 30.51 in 10.0 mi West 8.1 mph - N/A   Clear
11:53 PM 12.0 °F -2.0 °F 10.0 °F 92% 30.50 in 10.0 mi West 11.5 mph - N/A   Clear